This is the latest recevied weather packets stored in our database for station/object KC4GS-13. If no packets are shown the sender has not sent any weather packets the latest 10 day(s).
| Time | Temp. | Humidity | Pressure | Rain* | Wind** | Luminosity | Snow |
|---|---|---|---|---|---|---|---|
| 1777762374 | 17.78° C | 80% | 1012.8 hPa | 0 mm | - | 44 W/m² | - |
| 1777762070 | 17.78° C | 80% | 1013 hPa | 0 mm | - | 84 W/m² | - |
| 1777761767 | 17.78° C | 80% | 1012.8 hPa | 0 mm | - | 107 W/m² | - |
| 1777761464 | 17.78° C | 80% | 1013 hPa | 0 mm | - | 108 W/m² | - |
| 1777761162 | 17.78° C | 79% | 1012.8 hPa | 0 mm | - | 63 W/m² | - |
| 1777760860 | 17.78° C | 79% | 1012.8 hPa | 0 mm | - | 191 W/m² | - |
| 1777760556 | 17.78° C | 79% | 1012.6 hPa | 0 mm | - | 179 W/m² | - |
| 1777760252 | 17.78° C | 78% | 1012.8 hPa | 0 mm | - | 64 W/m² | - |
| 1777759949 | 18.33° C | 78% | 1012.7 hPa | 0 mm | - | 84 W/m² | - |
| 1777759645 | 18.89° C | 78% | 1012.7 hPa | 0 mm | - | 135 W/m² | - |
| 1777759342 | 18.89° C | 77% | 1012.7 hPa | 0 mm | - | 204 W/m² | - |
| 1777759039 | 18.89° C | 76% | 1012.5 hPa | 0 mm | - | 79 W/m² | - |
| 1777758735 | 18.89° C | 75% | 1012.6 hPa | 0 mm | - | 376 W/m² | - |
| 1777758432 | 18.89° C | 77% | 1012.4 hPa | 0 mm | - | 272 W/m² | - |
| 1777758124 | 18.89° C | 77% | 1012.6 hPa | 0 mm | - | 123 W/m² | - |
| 1777757821 | 19.44° C | 76% | 1012.7 hPa | 0 mm | - | 208 W/m² | - |
| 1777757518 | 19.44° C | 76% | 1012.5 hPa | 0 mm | - | 182 W/m² | - |
| 1777757217 | 18.89° C | 79% | 1012.6 hPa | 0 mm | - | 356 W/m² | - |
| 1777756915 | 17.78° C | 79% | 1012.6 hPa | 0 mm | - | 463 W/m² | - |
| 1777756610 | 18.33° C | 78% | 1012.3 hPa | 0 mm | - | 107 W/m² | - |
| 1777756308 | 18.33° C | 78% | 1012.5 hPa | 0 mm | - | 374 W/m² | - |
| 1777756005 | 17.78° C | 81% | 1012.3 hPa | 0 mm | - | 337 W/m² | - |
| 1777755702 | 17.22° C | 80% | 1012.5 hPa | 0 mm | - | 135 W/m² | - |
| 1777755399 | 17.78° C | 79% | 1012.6 hPa | 0 mm | - | 84 W/m² | - |
| 1777755095 | 17.78° C | 78% | 1012.5 hPa | 0 mm | - | 115 W/m² | - |
* Rain latest hour (hover to see other rain measurements)
** Current wind speed in m/s (hover to see current wind gust speed)